Onweer van: 25-07-2021 11:00 tot: 20:00 waarschuwing voor: Onweer niveau: Geel info button


waarschuwing voor Onweer Meer informatie blitzortung!


Regen radar Meer informatie rain snow radar


Bezoek onze andere website:

Template documentation
and downloads

And another site



15 daagse weersverwachting Tønsberg (NO)

  • Overzicht
  • Per uur
  • 15 dagen
  • Extra
  • Vergelijk
  • Kaarten
  • Dagkaart
  • Meer »
  • Info
  • Statistieken
  • Directe link
    Temp 6h Neerslag Wind  
 04:52     21:59    Daglengte: 17:07 Vandaag
08:00
19°
 
1
14:00
26°
 
1
20:00
25°
 
2
 04:55     21:57    Daglengte: 17:02 Morgen
02:00
19°
 
2
08:00
20°
 
2
14:00
25°
 
4
20:00
23°
0.3 mm
3
 04:57     21:55    Daglengte: 16:58 Dinsdag 27 Jul
02:00
19°
8.0 mm
4
08:00
19°
13.6 mm
3
warningclass
14:00
20°
13.2 mm
5
warningclass
20:00
19°
22.6 mm
5
 04:59     21:52    Daglengte: 16:53 Woensdag 28 Jul
02:00
18°
14.9 mm
3
Locatie info
Region: Vestfold
Latitude: 59.2659°N
Longitude: 10.4076°E
16 masl
Postcode: 3126
Temp/Neerslag /Baro Onweer/Dauwpunt
    Temp Baro 1h Neerslag Dauwpunt Wind UV Bewolking  
 04:52     21:59    Daglengte: 17:07 Vandaag
06:00
16°
1015.3 hPa   15.1°
1
Windvlaag: -0.6 m/s
1%
07:00
17°
1015.3 hPa   16.2°
1
Windvlaag: -0.7 m/s
1%
08:00
19°
1015.5 hPa   18.1°
1
Windvlaag: -0.7 m/s
10%
09:00
21°
1015.7 hPa   18.7°
2
Windvlaag: 0.3 m/s
21%
10:00
21°
1016.0 hPa   18.1°
2
Windvlaag: 1.6 m/s
16%
11:00
22°
1016.1 hPa   17.6°
2
Windvlaag: 2.7 m/s
7%
12:00
23°
1016.1 hPa   17.2°
2
Windvlaag: 3.2 m/s
6%
13:00
25°
1015.9 hPa   16.3°
2
Windvlaag: 3.3 m/s
11%
14:00
26°
1015.5 hPa   15.5°
1
Windvlaag: 1.3 m/s
49%
15:00
26°
1015.2 hPa   15.2°
2
Windvlaag: -3.5 m/s
38%
16:00
27°
1014.8 hPa   14.1°
2
Windvlaag: -3.8 m/s
54%
17:00
26°
1014.6 hPa   13.3°
2
Windvlaag: 2.2 m/s
50%
18:00
26°
1014.3 hPa   11.7°
3
Windvlaag: 4.1 m/s
36%
19:00
25°
1014.2 hPa   10.0°
2
Windvlaag: 4 m/s
62%
20:00
25°
1014.3 hPa   10.6°
2
Windvlaag: 1.6 m/s
64%
21:00
23°
1014.7 hPa   15.4°
1
Windvlaag: 1.9 m/s
73%
22:00
22°
1014.9 hPa   13.7°
1
Windvlaag: 3.3 m/s
71%
23:00
21°
1015.3 hPa   15.4°
1
Windvlaag: 3 m/s
79%
 04:55     21:57    Daglengte: 17:02 Morgen
00:00
20°
1015.4 hPa   16.5°
1
Windvlaag: 3.1 m/s
75%
01:00
19°
1015.4 hPa   16.7°
2
Windvlaag: 1 m/s
61%
02:00
19°
1015.1 hPa   16.3°
2
Windvlaag: 0.4 m/s
45%
03:00
18°
1015.1 hPa   16.6°
2
Windvlaag: -0.8 m/s
46%
04:00
18°
1015.0 hPa   16.6°
2
Windvlaag: -0.6 m/s
46%
05:00
18°
1015.1 hPa   16.6°
2
Windvlaag: -0.5 m/s
45%
06:00
18°
1015.1 hPa   16.9°
2
Windvlaag: -0.3 m/s
49%
07:00
19°
1015.3 hPa   17.6°
2
Windvlaag: -0 m/s
45%
08:00
20°
1015.6 hPa   17.1°
2
Windvlaag: 0.9 m/s
36%
09:00
21°
1015.7 hPa   16.4°
3
Windvlaag: 1 m/s
24%
10:00
22°
1015.7 hPa   16.0°
3
Windvlaag: -0.8 m/s
33%
11:00
23°
1015.5 hPa   15.9°
3
Windvlaag: -1.4 m/s
27%
12:00
24°
1015.2 hPa   15.5°
3
Windvlaag: -1 m/s
44%
13:00
24°
1014.8 hPa   14.9°
5
Windvlaag: 5.7 m/s
66%
14:00
25°
1014.6 hPa   16.1°
4
Windvlaag: 5.5 m/s
63%
15:00
25°
1014.1 hPa
11%
15.5°
4
Windvlaag: 5.5 m/s
74%
16:00
25°
1013.7 hPa
12%
16.0°
4
Windvlaag: 3.1 m/s
69%
17:00
26°
1013.3 hPa
16%
16.6°
3
Windvlaag: 1.9 m/s
78%
18:00
25°
1013.0 hPa
67%
16.6°
4
Windvlaag: 2.4 m/s
70%
19:00
24°
1012.7 hPa 0.3 mm
77%
16.3°
3
Windvlaag: 2.5 m/s
78%
20:00
23°
1012.3 hPa
78%
17.1°
3
Windvlaag: -2.4 m/s
80%
21:00
22°
1012.2 hPa 0.4 mm
82%
18.5°
3
Windvlaag: -2.4 m/s
76%
22:00
21°
1012.3 hPa
82%
18.2°
3
Windvlaag: -1.7 m/s
83%
23:00
20°
1011.9 hPa 0.9 mm
100%
18.7°
3
Windvlaag: -0.2 m/s
99%
 04:57     21:55    Daglengte: 16:58 Dinsdag 27 Jul
00:00
19°
1011.6 hPa 1.4 mm
100%
18.6°
3
Windvlaag: 1 m/s
99%
01:00
20°
1011.1 hPa 3.0 mm
100%
18.4°
5
Windvlaag: 2.1 m/s
100% warningclass
02:00
19°
1010.6 hPa 2.3 mm
100%
18.4°
4
Windvlaag: 1.6 m/s
98%
03:00
19°
1010.2 hPa 3.2 mm
100%
19.0°
4
Windvlaag: 0.2 m/s
100%
04:00
19°
1010.3 hPa 1.4 mm
95%
19.2°
4
Windvlaag: 1.9 m/s
100%
05:00
19°
1009.9 hPa 1.5 mm
100%
19.1°
3
Windvlaag: -0.2 m/s
90% warningclass
06:00
19°
1009.8 hPa 3.6 mm
100%
19.2°
3
Windvlaag: -3.3 m/s
99% warningclass
07:00
19°
1009.4 hPa 2.4 mm
100%
18.9°
3
Windvlaag: -3.2 m/s
100%
08:00
19°
1009.4 hPa 1.6 mm
100%
18.4°
3
Windvlaag: -4 m/s
99% warningclass
09:00
20°
1008.5 hPa 2.4 mm
100%
18.5°
3
Windvlaag: 2.7 m/s
84% warningclass
10:00
20°
1008.5 hPa 2.4 mm
96%
18.5°
4
Windvlaag: 3.4 m/s
97% warningclass
11:00
22°
1008.0 hPa
98%
19.3°
4
Windvlaag: 4 m/s
78%
12:00
21°
1007.7 hPa 2.6 mm
100%
19.0°
3
Windvlaag: 4.3 m/s
89% warningclass
13:00
21°
1007.2 hPa 2.7 mm
100%
18.0°
4
Windvlaag: 5.3 m/s
100% warningclass
14:00
20°
1006.8 hPa 3.2 mm
100%
19.1°
5
Windvlaag: 7.5 m/s
100% warningclass
15:00
20°
1006.0 hPa 3.4 mm
100%
15.9°
5
Windvlaag: 6.8 m/s
93%
16:00
20°
1005.5 hPa 5.4 mm
100%
15.0°
4
Windvlaag: 8.2 m/s
98% warningclass
17:00
20°
1005.3 hPa 5.1 mm
100%
17.1°
7
Windvlaag: 8.3 m/s
100% warningclass
18:00
20°
1005.1 hPa 3.5 mm
100%
15.8°
7
Windvlaag: 9.6 m/s
93% warningclass
19:00
19°
1005.3 hPa 2.6 mm
100%
16.2°
6
Windvlaag: 10 m/s
93%
20:00
19°
1005.6 hPa 2.5 mm
100%
16.8°
5
Windvlaag: 9.8 m/s
97%
21:00
19°
1005.9 hPa
100%
16.9°
4
Windvlaag: 8.9 m/s
98%
22:00
19°
1006.2 hPa
97%
17.6°
3
Windvlaag: 9.2 m/s
70%
23:00
18°
1006.4 hPa
51%
17.5°
3
Windvlaag: 9 m/s
70%
 04:59     21:52    Daglengte: 16:53 Woensdag 28 Jul
00:00
18°
1006.5 hPa
48%
17.3°
3
Windvlaag: 8.1 m/s
73%
01:00
18°
1006.5 hPa 2.6 mm
96%
17.1°
4
Windvlaag: 7.4 m/s
74%
02:00
18°
1006.5 hPa 2.6 mm
97%
17.0°
3
Windvlaag: 7.4 m/s
39%
Temp/Neerslag /Baro Onweer/Dauwpunt
    Temp Baro Neerslag Dauwpunt Wind Bewolking  
 04:52     21:59    Daglengte: 17:07 Vandaag
08:00
19°
1015.5 hPa   18.1°
1
10%
11:00
22°
1016.1 hPa   17.6°
2
7%
14:00
26°
1015.5 hPa   15.5°
1
49%
17:00
26°
1014.6 hPa   13.3°
2
50%
20:00
25°
1014.3 hPa   10.6°
2
64%
23:00
21°
1015.3 hPa   15.4°
1
79%
 04:55     21:57    Daglengte: 17:02 Morgen
02:00
19°
1015.1 hPa   16.3°
2
45%
05:00
18°
1015.1 hPa   16.6°
2
45%
08:00
20°
1015.6 hPa   17.1°
2
36%
11:00
23°
1015.5 hPa   15.9°
3
27%
14:00
25°
1014.6 hPa   16.1°
4
63%
17:00
26°
1013.3 hPa   16.6°
3
78%
20:00
23°
1012.3 hPa 0.3 mm 17.1°
3
80%
23:00
20°
1011.9 hPa 1.2 mm 18.7°
3
99%
 04:57     21:55    Daglengte: 16:58 Dinsdag 27 Jul
02:00
19°
1010.6 hPa 6.7 mm 18.4°
4
98%
05:00
19°
1009.9 hPa 6.0 mm 19.1°
3
90% warningclass
08:00
19°
1009.4 hPa 7.6 mm 18.4°
3
99% warningclass
11:00
22°
1008.0 hPa 4.8 mm 19.3°
4
78% warningclass
14:00
20°
1006.8 hPa 8.5 mm 19.1°
5
100% warningclass
17:00
20°
1005.3 hPa 13.9 mm 17.1°
7
100% warningclass
20:00
19°
1005.6 hPa 8.7 mm 16.8°
5
97%
23:00
18°
1006.4 hPa   17.5°
3
70%
 04:59     21:52    Daglengte: 16:53 Woensdag 28 Jul
02:00
18°
1006.5 hPa 7.6 mm 17.0°
3
39%
05:00
16°
1006.9 hPa 20.8 mm 14.7°
2
1%
08:00
18°
1006.6 hPa 21.0 mm 15.8°
2
0%
11:00
19°
1006.1 hPa 21.6 mm 16.4°
2
1%
14:00
21°
1005.4 hPa 21.9 mm 15.9°
4
1%
17:00
20°
1004.9 hPa 22.0 mm 15.5°
5
1%
20:00
19°
1004.1 hPa 22.0 mm 14.3°
4
1%
23:00
16°
1003.6 hPa 22.0 mm 13.9°
4
0%
 05:01     21:50    Daglengte: 16:49 Donderdag 29 Jul
02:00
16°
1002.8 hPa 22.0 mm 13.0°
4
0%
05:00
15°
1002.0 hPa 22.0 mm 12.7°
5
0%
08:00
17°
1001.7 hPa 22.0 mm 12.0°
7
0%
11:00
20°
1001.9 hPa 22.0 mm 11.0°
8
1%
14:00
21°
1002.1 hPa 22.0 mm 12.3°
9
1%
17:00
20°
1002.3 hPa 22.0 mm 13.2°
9
0%
20:00
18°
1001.5 hPa 22.0 mm 13.2°
7
0%
23:00
17°
1000.8 hPa 22.0 mm 12.2°
6
0%
 05:03     21:48    Daglengte: 16:45 Vrijdag 30 Jul
02:00
16°
998.7 hPa 22.6 mm 12.5°
4
1%
05:00
15°
996.0 hPa 25.4 mm 11.9°
5
1%
08:00
14°
994.8 hPa 30.0 mm 11.2°
4
1%
11:00
18°
994.0 hPa 30.3 mm 10.2°
9
1%
14:00
18°
993.9 hPa 30.6 mm 9.5°
8
1%
17:00
18°
993.1 hPa 31.2 mm 10.8°
9
1%
20:00
18°
992.6 hPa 31.6 mm 8.9°
7
1%
23:00
16°
992.9 hPa 31.6 mm 8.3°
7
1%
 05:06     21:45    Daglengte: 16:39 Zaterdag 31 Jul
02:00
14°
993.7 hPa 31.6 mm 8.9°
4
1%
05:00
13°
994.7 hPa 31.6 mm 7.6°
2
0%
08:00
15°
995.6 hPa 31.6 mm 9.2°
2
0%
11:00
18°
996.6 hPa 31.6 mm 10.3°
1
1%
14:00
17°
997.2 hPa 32.0 mm 10.6°
1
1%
17:00
18°
997.4 hPa 32.4 mm 8.3°
1
1%
20:00
17°
997.3 hPa 32.8 mm 9.6°
1
1%
23:00
14°
997.7 hPa 33.4 mm 9.3°
4
1%
 05:08     21:43    Daglengte: 16:35 Zondag 01 Aug
02:00
13°
998.1 hPa 33.6 mm 10.2°
5
1%
05:00
13°
998.8 hPa   10.6°
6
1%
08:00
13°
1000.1 hPa 68.9 mm 11.2°
6
1%
14:00
16°
1003.1 hPa 70.8 mm 11.2°
5
1%
20:00
16°
1004.2 hPa 71.5 mm 11.2°
2
1%
 05:10     21:41    Daglengte: 16:31 Maandag 02 Aug
02:00
14°
1005.4 hPa 74.0 mm 9.3°
2
1%
08:00
13°
1007.2 hPa 78.8 mm 10.9°
3
1%
14:00
18°
1008.7 hPa 84.7 mm 9.3°
1
1%
20:00
18°
1009.3 hPa 85.0 mm 10.8°
2
1%
 05:12     21:38    Daglengte: 16:26 Dinsdag 03 Aug
02:00
15°
1011.1 hPa 85.1 mm 9.8°
2
1%
14:00
20°
1013.4 hPa 128.8 mm 10.5°
1
1%
20:00
18°
1012.5 hPa 86.2 mm 11.4°
3
1%
 05:14     21:36    Daglengte: 16:22 Woensdag 04 Aug
02:00
14°
1004.9 hPa 0.6 mm 10.6°
1
40%
08:00
14°
1005.3 hPa   10.5°
2
55%
14:00
17°
1005.3 hPa 1.2 mm 11.6°
1
61%
20:00
17°
1005.5 hPa 0.5 mm 11.9°
2
51%
 05:17     21:33    Daglengte: 16:16 Donderdag 05 Aug
02:00
15°
1006.8 hPa 0.8 mm 11.2°
1
62%
08:00
15°
1007.2 hPa 1.1 mm 11.5°
1
63%
14:00
17°
1007.3 hPa 0.9 mm 12.5°
3
56%
20:00
17°
1007.3 hPa 0.7 mm 12.7°
3
47%
 05:19     21:31    Daglengte: 16:12 Vrijdag 06 Aug
02:00
15°
1008.1 hPa 0.7 mm 11.7°
2
56%
08:00
15°
1008.2 hPa 0.6 mm 12.1°
0
65%
14:00
17°
1007.9 hPa 1.0 mm 12.7°
3
57%
20:00
17°
1007.5 hPa 0.6 mm 12.5°
3
53%
 05:21     21:28    Daglengte: 16:07 Zaterdag 07 Aug
02:00
15°
1008.4 hPa 0.5 mm 11.6°
1
50%
08:00
15°
1008.4 hPa 1.2 mm 11.8°
1
64%
14:00
17°
1008.0 hPa 1.4 mm 12.9°
2
67%
20:00
17°
1007.5 hPa 1.2 mm 13.0°
2
59%
 05:24     21:26    Daglengte: 16:02 Zondag 08 Aug
02:00
15°
1008.1 hPa 1.8 mm 12.1°
0
68%
08:00
15°
1007.8 hPa 2.0 mm 12.0°
1
72%
14:00
17°
1007.5 hPa 1.3 mm 13.0°
2
69%
20:00
17°
1007.1 hPa 2.3 mm 13.1°
2
70%
 05:26     21:23    Daglengte: 15:57 Maandag 09 Aug
02:00
15°
1007.5 hPa 1.6 mm 12.1°
1
63%
08:00
15°
1007.5 hPa 0.9 mm 12.0°
1
63%
  CAPE Lifted Index Hail Supercell Tornado SRH 3km CL BTM PRES CL TOP PRES Swiss DWD icon SMHI TS
 04:52     21:59    Daglengte: 17:07 Vandaag
06:00 0 J/kg -1.1 K 0 % 0 % 0 % 0 m²/s² 0 0 2.86 0
07:00 5 J/kg -0.9 K 0 % 0 % 0 % 0 m²/s² 0 0 3.27 2
08:00 33 J/kg -0.5 K 0 % 0 % 0 % 0 m²/s² 0 0 4 2
09:00 198 J/kg -1.3 K 0 % 0 % 0 % 0 m²/s² 0 0 3.44 2
10:00 381 J/kg -1.9 K 0 % 0 % 0 % 0 m²/s² 0 0 2.84 3
11:00 457 J/kg -2.0 K 0 % 0 % 0 % 0 m²/s² 0 0 2.65 2
12:00 302 J/kg -1.5 K 0 % 0 % 0 % 0 m²/s² 0 0 2.91 2
13:00 223 J/kg -1.5 K 0 % 0 % 0 % 0 m²/s² 0 0 2.49 1
14:00 411 J/kg -2.3 K 0 % 0 % 0 % 0 m²/s² 0 0 1.57 3
15:00 377 J/kg -1.8 K 0 % 0 % 0 % 0 m²/s² 0 0 1.98 3
16:00 60 J/kg -0.2 K 0 % 0 % 0 % 0 m²/s² 0 0 3.67 3
17:00 0 J/kg 1.0 K 0 % 0 % 0 % 0 m²/s² 0 0 4.99 3
18:00 0 J/kg 2.0 K 0 % 0 % 0 % 0 m²/s² 0 0 6.11 3
19:00 0 J/kg 2.6 K 0 % 0 % 0 % 0 m²/s² 0 0 6.92 3
20:00 0 J/kg 2.6 K 0 % 0 % 0 % 0 m²/s² 0 0 7.16 3
21:00 0 J/kg 2.6 K 0 % 0 % 0 % 0 m²/s² 0 0 7.28 3
22:00 0 J/kg 2.5 K 0 % 0 % 0 % 0 m²/s² 0 0 7.42 3
23:00 0 J/kg 2.4 K 0 % 0 % 0 % 0 m²/s² 0 0 7.56 3
 04:55     21:57    Daglengte: 17:02 Morgen
00:00 0 J/kg 3.0 K 0 % 0 % 0 % 0 m²/s² 0 0 8.31 3
01:00 0 J/kg 2.4 K 0 % 0 % 0 % 0 m²/s² 0 0 7.29 3
02:00 0 J/kg 1.9 K 0 % 0 % 0 % 0 m²/s² 0 0 6.67 2
03:00 0 J/kg 2.3 K 0 % 0 % 0 % 0 m²/s² 0 0 7.22 2
04:00 0 J/kg 1.3 K 0 % 0 % 0 % 0 m²/s² 0 0 6.22 3
05:00 0 J/kg 1.5 K 0 % 0 % 0 % 0 m²/s² 0 0 6.42 3
06:00 0 J/kg 1.8 K 0 % 0 % 0 % 0 m²/s² 0 0 6.72 3
07:00 0 J/kg 2.3 K 0 % 0 % 0 % 0 m²/s² 0 0 7.46 3
08:00 0 J/kg 2.5 K 0 % 0 % 0 % 0 m²/s² 0 0 7.69 3
09:00 0 J/kg 1.6 K 0 % 0 % 0 % 0 m²/s² 0 0 6.16 3
10:00 0 J/kg 1.4 K 0 % 0 % 0 % 0 m²/s² 0 0 5.51 3
11:00 2 J/kg 1.3 K 0 % 0 % 0 % 0 m²/s² 0 0 4.63 3
12:00 43 J/kg 0.1 K 0 % 0 % 0 % 0 m²/s² 0 0 2.53 3
13:00 188 J/kg -0.6 K 0 % 0 % 0 % 0 m²/s² 0 0 1.35 3
14:00 466 J/kg -1.6 K 0 % 0 % 0 % 0 m²/s² 0 0 0.35 3
15:00 344 J/kg -1.2 K 0 % 0 % 0 % 0 m²/s² 0 0 1.47 3
16:00 272 J/kg -1.1 K 0 % 0 % 0 % 0 m²/s² 0 0 1.57 3
17:00 232 J/kg -1.1 K 0 % 0 % 0 % 0 m²/s² 0 0 0.85 3
18:00 236 J/kg -1.3 K 0 % 0 % 0 % 0 m²/s² 0 0 0.41 3
19:00 310 J/kg -1.2 K 0 % 0 % 0 % 0 m²/s² 0 0 0.12 61
20:00 86 J/kg 0.0 K 0 % 0 % 0 % 0 m²/s² 0 0 0.3 80
21:00 9 J/kg 0.2 K 0 % 0 % 0 % 0 m²/s² 0 0 0.2 61
22:00 6 J/kg -1.4 K 0 % 0 % 0 % 0 m²/s² 0 0 -1.37 61
23:00 3 J/kg -2.4 K 0 % 0 % 0 % 0 m²/s² 0 0 -2.4 61
 04:57     21:55    Daglengte: 16:58 Dinsdag 27 Jul
00:00 0 J/kg -2.8 K 0 % 0 % 0 % 0 m²/s² 0 0 -2.41 80
01:00 105 J/kg -3.1 K 0 % 0 % 0 % 0 m²/s² 0 0 -2.2 95
02:00 194 J/kg -2.7 K 0 % 0 % 0 % 0 m²/s² 0 0 -1.68 80
03:00 512 J/kg -2.8 K 0 % 0 % 0 % 0 m²/s² 0 0 -1 80
04:00 733 J/kg -3.6 K 0 % 0 % 0 % 0 m²/s² 0 0 -1.74 3
05:00 827 J/kg -3.9 K 0 % 0 % 0 % 0 m²/s² 0 0 -2.19 80
06:00 783 J/kg -3.8 K 0 % 0 % 0 % 0 m²/s² 0 0 -2.03 81
07:00 739 J/kg -3.3 K 0 % 0 % 0 % 0 m²/s² 0 0 -1.65 81
08:00 908 J/kg -3.4 K 0 % 0 % 0 % 0 m²/s² 0 0 -2.14 80
09:00 1038 J/kg -3.9 K 0 % 0 % 0 % 0 m²/s² 0 0 -2.58 80
10:00 1151 J/kg -4.2 K 0 % 0 % 0 % 0 m²/s² 0 0 -2.79 80
11:00 1149 J/kg -4.3 K 0 % 0 % 0 % 0 m²/s² 0 0 -3.04 3
12:00 1113 J/kg -4.4 K 0 % 0 % 0 % 0 m²/s² 0 0 -3.02 80
13:00 1181 J/kg -4.6 K 0 % 0 % 0 % 0 m²/s² 0 0 -2.83 61
14:00 1157 J/kg -4.8 K 0 % 0 % 0 % 0 m²/s² 0 0 -3.9 61
15:00 236 J/kg -1.5 K 0 % 0 % 0 % 0 m²/s² 0 0 0.27 61
16:00 206 J/kg -1.3 K 0 % 0 % 0 % 0 m²/s² 0 0 1.19 95
17:00 541 J/kg -2.5 K 0 % 0 % 0 % 0 m²/s² 0 0 -0.22 95
18:00 214 J/kg -1.3 K 0 % 0 % 0 % 0 m²/s² 0 0 1.13 95
19:00 209 J/kg -1.1 K 0 % 0 % 0 % 0 m²/s² 0 0 1.18 80
20:00 249 J/kg -1.0 K 0 % 0 % 0 % 0 m²/s² 0 0 1.28 3
21:00 70 J/kg 0.0 K 0 % 0 % 0 % 0 m²/s² 0 0 3.06 3
22:00 73 J/kg 0.0 K 0 % 0 % 0 % 0 m²/s² 0 0 2.97 2
23:00 28 J/kg 0.6 K 0 % 0 % 0 % 0 m²/s² 0 0 3.84 3
 04:59     21:52    Daglengte: 16:53 Woensdag 28 Jul
00:00 60 J/kg 0.1 K 0 % 0 % 0 % 0 m²/s² 0 0 1.99 3
01:00 67 J/kg -0.1 K 0 % 0 % 0 % 0 m²/s² 0 0 1.25 80
02:00 151 J/kg -0.3 K 0 % 0 % 0 % 0 m²/s² 0 0 1.23 3
Temp Baro Wind Neerslag
  EWN Forecast EWN WRFDA DWD ICON FMI HIRLAM MET Norway GFS
 04:52     21:59    Daglengte: 17:07 Vandaag
08:00 19.5° 1015.5 hPa 1.1 m/s 0.0 mm 18.5° 1014.9 hPa 1.8 m/s 0.0 mm 20.1° 1015.3 hPa 1.1 m/s -2.0 mm 17.6° 1015.8 hPa 0.6 m/s 0.0 mm 19.0° 1016.1 hPa 1.5 m/s
11:00 22.3° 1016.1 hPa 2.1 m/s 0.0 mm 21.3° 1015.4 hPa 2.5 m/s 0.0 mm 21.8° 1016.0 hPa 2.1 m/s 0.0 mm 22.3° 1016.5 hPa 1.4 m/s 0.0 mm 21.7° 1016.3 hPa 1.8 m/s
14:00 25.7° 1015.5 hPa 1.2 m/s 0.0 mm 23.9° 1014.8 hPa 1.2 m/s 0.0 mm 24.6° 1015.5 hPa 1.8 m/s 0.0 mm 26.1° 1016.0 hPa 1.0 m/s 0.0 mm 23.4° 1015.4 hPa 0.2 m/s
17:00 26.3° 1014.6 hPa 2.4 m/s 0.0 mm 24.6° 1014.3 hPa 2.6 m/s 0.0 mm 25.6° 1014.5 hPa 2.5 m/s 0.0 mm 26.4° 1015.3 hPa 2.9 m/s 0.0 mm 24.5° 1014.6 hPa 2.1 m/s
20:00 24.6° 1014.3 hPa 1.7 m/s 0.0 mm 23.4° 1013.6 hPa 1.3 m/s 0.0 mm 23.5° 1014.4 hPa 1.7 m/s 0.0 mm 24.5° 1015.0 hPa 1.1 m/s 0.0 mm 23.0° 1014.2 hPa 1.2 m/s
23:00 20.8° 1015.3 hPa 1.2 m/s 0.0 mm 20.2° 1014.2 hPa 3.3 m/s 0.0 mm 20.6° 1015.3 hPa 0.8 m/s 0.0 mm 20.1° 1016.0 hPa 1.7 m/s 0.0 mm 20.2° 1014.8 hPa 1.8 m/s
 04:55     21:57    Daglengte: 17:02 Morgen
02:00 18.7° 1015.1 hPa 1.9 m/s 0.0 mm 19.3° 1014.1 hPa 4.2 m/s 0.0 mm 18.5° 1015.1 hPa 1.7 m/s 0.0 mm 17.3° 1016.0 hPa 1.7 m/s 0.0 mm 18.5° 1014.9 hPa 3.2 m/s
05:00 17.9° 1015.1 hPa 2.0 m/s 0.0 mm 17.7° 1013.9 hPa 4.1 m/s 0.0 mm 17.8° 1015.1 hPa 1.7 m/s 0.0 mm 16.4° 1015.9 hPa 1.7 m/s 0.0 mm 17.3° 1014.9 hPa 3.4 m/s
08:00 20.0° 1015.6 hPa 2.4 m/s 0.0 mm 18.8° 1013.6 hPa 4.2 m/s 0.0 mm 20.0° 1015.7 hPa 2.8 m/s 0.0 mm 19.1° 1016.2 hPa 2.2 m/s 0.0 mm 18.6° 1015.3 hPa 3.3 m/s
11:00 23.0° 1015.5 hPa 3.4 m/s 0.0 mm 22.1° 1013.1 hPa 5.3 m/s 0.0 mm 22.8° 1015.7 hPa 2.4 m/s 0.0 mm 22.3° 1016.1 hPa 3.8 m/s 0.0 mm 22.5° 1015.0 hPa 2.7 m/s
14:00 24.8° 1014.6 hPa 3.9 m/s 0.0 mm 24.3° 1011.7 hPa 5.2 m/s 0.2 mm 24.9° 1014.2 hPa 2.0 m/s 0.0 mm 23.7° 1015.2 hPa 3.7 m/s 0.0 mm 23.9° 1013.8 hPa 4.9 m/s
17:00 25.8° 1013.3 hPa 3.4 m/s 0.0 mm 25.4° 1010.0 hPa 6.9 m/s 1.3 mm 25.9° 1012.6 hPa 2.0 m/s 0.0 mm 24.7° 1014.0 hPa 3.7 m/s 0.0 mm 19.7° 1013.7 hPa 3.0 m/s
20:00 23.5° 1012.3 hPa 3.2 m/s 0.3 mm 22.0° 1009.6 hPa 6.3 m/s 1.4 mm 20.4° 1012.2 hPa 2.9 m/s 1.0 mm 24.1° 1013.0 hPa 2.8 m/s 0.0 mm 20.3° 1012.4 hPa 2.5 m/s
23:00 19.6° 1011.9 hPa 2.7 m/s 1.2 mm 18.4° 1007.8 hPa 4.9 m/s 6.1 mm 19.2° 1012.5 hPa 2.4 m/s 0.9 mm 18.5° 1012.8 hPa 1.9 m/s
 04:57     21:55    Daglengte: 16:58 Dinsdag 27 Jul
02:00 19.5° 1010.6 hPa 4.2 m/s 6.7 mm 19.2° 1005.8 hPa 4.1 m/s 15.1 mm 18.7° 1011.0 hPa 4.2 m/s 3.7 mm 17.4° 1012.7 hPa 3.2 m/s
05:00 19.1° 1009.9 hPa 3.2 m/s 6.0 mm 19.0° 1006.0 hPa 3.1 m/s 16.6 mm 18.8° 1010.1 hPa 3.9 m/s 3.2 mm 17.2° 1011.6 hPa 4.0 m/s
08:00 19.2° 1009.4 hPa 3.2 m/s 7.6 mm 19.7° 1004.6 hPa 1.1 m/s 16.6 mm 19.2° 1009.8 hPa 3.5 m/s 6.5 mm 17.6° 1010.9 hPa 2.5 m/s
11:00 21.5° 1008.0 hPa 3.6 m/s 4.8 mm 20.9° 1004.6 hPa 3.2 m/s 17.1 mm 21.7° 1008.8 hPa 3.7 m/s 1.5 mm 18.2° 1009.9 hPa 0.3 m/s
14:00 20.1° 1006.8 hPa 4.6 m/s 8.5 mm 19.7° 1004.8 hPa 4.8 m/s 19.0 mm 20.2° 1007.3 hPa 4.6 m/s 3.2 mm 17.9° 1009.5 hPa 0.9 m/s
17:00 19.9° 1005.3 hPa 6.6 m/s 13.9 mm 19.5° 1005.4 hPa 5.9 m/s 21.8 mm 20.0° 1005.3 hPa 6.8 m/s 10.0 mm 19.7° 1009.0 hPa 1.8 m/s
20:00 19.2° 1005.6 hPa 5.0 m/s 8.7 mm 18.7° 1005.4 hPa 6.3 m/s 21.8 mm 19.4° 1005.6 hPa 4.6 m/s 2.1 mm 19.6° 1008.2 hPa 0.8 m/s
23:00 18.2° 1006.4 hPa 3.4 m/s 0.0 mm 16.7° 1005.6 hPa 4.6 m/s 21.8 mm 18.6° 1006.6 hPa 3.1 m/s 0.0 mm 17.5° 1008.4 hPa 0.8 m/s
 04:59     21:52    Daglengte: 16:53 Woensdag 28 Jul
02:00 17.8° 1006.5 hPa 3.4 m/s 7.6 mm 17.2° 1005.7 hPa 3.7 m/s 22.1 mm 17.9° 1006.7 hPa 3.3 m/s 0.4 mm 17.0° 1007.7 hPa 1.6 m/s
05:00 16.3° 1006.9 hPa 2.0 m/s 20.8 mm 16.3° 1006.9 hPa 2.0 m/s 20.8 mm
08:00 17.6° 1006.6 hPa 1.7 m/s 21.0 mm 17.6° 1006.6 hPa 1.7 m/s 21.0 mm
11:00 18.8° 1006.1 hPa 2.0 m/s 21.6 mm 18.8° 1006.1 hPa 2.0 m/s 21.6 mm
14:00 20.8° 1005.4 hPa 4.1 m/s 21.9 mm 20.8° 1005.4 hPa 4.1 m/s 21.9 mm
17:00 20.0° 1004.9 hPa 4.9 m/s 22.0 mm 20.0° 1004.9 hPa 4.9 m/s 22.0 mm
20:00 18.8° 1004.1 hPa 3.8 m/s 22.0 mm 18.8° 1004.1 hPa 3.8 m/s 22.0 mm
23:00 16.4° 1003.6 hPa 4.1 m/s 22.0 mm 16.4° 1003.6 hPa 4.1 m/s 22.0 mm
 05:01     21:50    Daglengte: 16:49 Donderdag 29 Jul
02:00 15.6° 1002.8 hPa 4.1 m/s 22.0 mm 15.6° 1002.8 hPa 4.1 m/s 22.0 mm
05:00 15.0° 1002.0 hPa 4.9 m/s 22.0 mm 15.0° 1002.0 hPa 4.9 m/s 22.0 mm
08:00 16.5° 1001.7 hPa 6.7 m/s 22.0 mm 16.5° 1001.7 hPa 6.7 m/s 22.0 mm
11:00 19.7° 1001.9 hPa 7.9 m/s 22.0 mm 19.7° 1001.9 hPa 7.9 m/s 22.0 mm
14:00 21.1° 1002.1 hPa 9.5 m/s 22.0 mm 21.1° 1002.1 hPa 9.5 m/s 22.0 mm
17:00 20.2° 1002.3 hPa 8.6 m/s 22.0 mm 20.2° 1002.3 hPa 8.6 m/s 22.0 mm
20:00 18.5° 1001.5 hPa 7.2 m/s 22.0 mm 18.5° 1001.5 hPa 7.2 m/s 22.0 mm
23:00 16.8° 1000.8 hPa 5.9 m/s 22.0 mm 16.8° 1000.8 hPa 5.9 m/s 22.0 mm
 05:03     21:48    Daglengte: 16:45 Vrijdag 30 Jul
02:00 15.7° 998.7 hPa 3.7 m/s 22.6 mm 15.7° 998.7 hPa 3.7 m/s 22.6 mm
05:00 15.3° 996.0 hPa 4.5 m/s 25.4 mm 15.3° 996.0 hPa 4.5 m/s 25.4 mm
08:00 14.0° 994.8 hPa 3.6 m/s 30.0 mm 14.0° 994.8 hPa 3.6 m/s 30.0 mm
11:00 18.0° 994.0 hPa 9.3 m/s 30.3 mm 18.0° 994.0 hPa 9.3 m/s 30.3 mm
14:00 18.1° 993.9 hPa 8.3 m/s 30.6 mm 18.1° 993.9 hPa 8.3 m/s 30.6 mm
17:00 18.4° 993.1 hPa 9.1 m/s 31.2 mm 18.4° 993.1 hPa 9.1 m/s 31.2 mm
20:00 18.0° 992.6 hPa 7.2 m/s 31.6 mm 18.0° 992.6 hPa 7.2 m/s 31.6 mm
23:00 15.7° 992.9 hPa 7.0 m/s 31.6 mm 15.7° 992.9 hPa 7.0 m/s 31.6 mm
 05:06     21:45    Daglengte: 16:39 Zaterdag 31 Jul
02:00 14.4° 993.7 hPa 3.9 m/s 31.6 mm 14.4° 993.7 hPa 3.9 m/s 31.6 mm
05:00 12.6° 994.7 hPa 1.6 m/s 31.6 mm 12.6° 994.7 hPa 1.6 m/s 31.6 mm
08:00 15.4° 995.6 hPa 1.9 m/s 31.6 mm 15.4° 995.6 hPa 1.9 m/s 31.6 mm
11:00 17.6° 996.6 hPa 1.0 m/s 31.6 mm 17.6° 996.6 hPa 1.0 m/s 31.6 mm
14:00 17.2° 997.2 hPa 1.4 m/s 32.0 mm 17.2° 997.2 hPa 1.4 m/s 32.0 mm
17:00 18.3° 997.4 hPa 0.8 m/s 32.4 mm 18.3° 997.4 hPa 0.8 m/s 32.4 mm
20:00 17.4° 997.3 hPa 0.6 m/s 32.8 mm 17.4° 997.3 hPa 0.6 m/s 32.8 mm
23:00 14.4° 997.7 hPa 3.6 m/s 33.4 mm 14.4° 997.7 hPa 3.6 m/s 33.4 mm
 05:08     21:43    Daglengte: 16:35 Zondag 01 Aug
02:00 13.1° 998.1 hPa 4.7 m/s 33.6 mm 13.1° 998.1 hPa 4.7 m/s 33.6 mm
05:00 12.9° 998.8 hPa 5.5 m/s 34.2 mm 12.9° 998.8 hPa 5.5 m/s 34.2 mm
08:00 13.0° 1000.1 hPa 5.9 m/s 34.7 mm 13.0° 1000.1 hPa 5.9 m/s 34.7 mm
14:00 15.8° 1003.1 hPa 5.5 m/s 35.5 mm 15.8° 1003.1 hPa 5.5 m/s 35.5 mm
20:00 15.6° 1004.2 hPa 2.4 m/s 36.0 mm 15.6° 1004.2 hPa 2.4 m/s 36.0 mm
 05:10     21:41    Daglengte: 16:31 Maandag 02 Aug
02:00 13.6° 1005.4 hPa 2.0 m/s 37.2 mm 13.6° 1005.4 hPa 2.0 m/s 37.2 mm
08:00 13.2° 1007.2 hPa 2.7 m/s 40.6 mm 13.2° 1007.2 hPa 2.7 m/s 40.6 mm
14:00 18.2° 1008.7 hPa 1.1 m/s 42.4 mm 18.2° 1008.7 hPa 1.1 m/s 42.4 mm
20:00 18.1° 1009.3 hPa 2.5 m/s 42.5 mm 18.1° 1009.3 hPa 2.5 m/s 42.5 mm
 05:12     21:38    Daglengte: 16:26 Dinsdag 03 Aug
02:00 15.4° 1011.1 hPa 1.9 m/s 42.6 mm 15.4° 1011.1 hPa 1.9 m/s 42.6 mm
14:00 19.8° 1013.4 hPa 0.9 m/s 43.1 mm 19.8° 1013.4 hPa 0.9 m/s 43.1 mm
20:00 18.5° 1012.5 hPa 3.3 m/s 43.1 mm 18.5° 1012.5 hPa 3.3 m/s 43.1 mm
 05:14     21:36    Daglengte: 16:22 Woensdag 04 Aug
02:00 14.0° 1004.9 hPa 0.9 m/s 0.6 mm
08:00 14.1° 1005.3 hPa 2.3 m/s 0.0 mm
14:00 17.4° 1005.3 hPa 1.1 m/s 1.2 mm
20:00 16.9° 1005.5 hPa 1.9 m/s 0.5 mm
 05:17     21:33    Daglengte: 16:16 Donderdag 05 Aug
02:00 14.6° 1006.8 hPa 0.8 m/s 0.8 mm
08:00 14.8° 1007.2 hPa 0.5 m/s 1.1 mm
14:00 17.5° 1007.3 hPa 2.9 m/s 0.9 mm
20:00 17.1° 1007.3 hPa 3.2 m/s 0.7 mm
 05:19     21:31    Daglengte: 16:12 Vrijdag 06 Aug
02:00 14.7° 1008.1 hPa 1.6 m/s 0.7 mm
08:00 14.9° 1008.2 hPa 0.4 m/s 0.6 mm
14:00 17.3° 1007.9 hPa 2.7 m/s 1.0 mm
20:00 17.1° 1007.5 hPa 2.9 m/s 0.6 mm
 05:21     21:28    Daglengte: 16:07 Zaterdag 07 Aug
02:00 14.6° 1008.4 hPa 1.0 m/s 0.5 mm
08:00 14.8° 1008.4 hPa 0.5 m/s 1.2 mm
14:00 17.3° 1008.0 hPa 1.8 m/s 1.4 mm
20:00 17.1° 1007.5 hPa 2.1 m/s 1.2 mm
 05:24     21:26    Daglengte: 16:02 Zondag 08 Aug
02:00 14.9° 1008.1 hPa 0.3 m/s 1.8 mm
08:00 14.9° 1007.8 hPa 0.7 m/s 2.0 mm
14:00 17.4° 1007.5 hPa 1.7 m/s 1.3 mm
20:00 16.7° 1007.1 hPa 2.0 m/s 2.3 mm
 05:26     21:23    Daglengte: 15:57 Maandag 09 Aug
02:00 14.6° 1007.5 hPa 0.6 m/s 1.6 mm
08:00 14.9° 1007.5 hPa 0.5 m/s 0.9 mm
FMI Hirlam - 7.5 km EWN WRFDA - 12 km DWD ICON - 7 km GFS - 25 km Basiskaart






























































Updatetijd (Europe/Amsterdam) Resolutie Lengte Stap
FMI Hirlam 02:00, 08:00, 14:00, 20:00 7.5 km 49h 1h
EWN WRFDA 22:15, 04:15, 10:15, 16:15 12 km 73h 1h
DWD ICON 23:45, 05:45, 11:45, 17:45 7 km 75h 1h
GFS 02:15, 08:15, 14:15, 20:15 25 km 237h 3h
30+ mm
25-30 mm
20-25 mm
15-20 mm
10-15 mm
6-10 mm
4-6 mm
2-4 mm
1-2 mm
0.5-1 mm
0.2-0.5 mm
0.1-0.2 mm
30+ mm
25-30 mm
20-25 mm
15-20 mm
10-15 mm
6-10 mm
4-6 mm
2-4 mm
1-2 mm
0.5-1 mm
0.2-0.5 mm
0.1-0.2 mm
Sneeuwval
Natte sneeuw
Hagel
Vorst
30+ mm
25-30 mm
20-25 mm
15-20 mm
10-15 mm
6-10 mm
4-6 mm
2-4 mm
1-2 mm
0.5-1 mm
0.2-0.5 mm
0.1-0.2 mm
Sneeuwval
Natte sneeuw
Hagel
Vorst
Onweer
50 mm
40 mm
30 mm
26 mm
22 mm
18 mm
14 mm
10 mm
9 mm
8 mm
7 mm
6 mm
5 mm
4.5 mm
4 mm
3.5 mm
3 mm
2.5 mm
2 mm
1.5 mm
1 mm
0.8 mm
0.6 mm
0.4 mm
0.2 mm
0.05 mm
35°
30°
25°
20°
15°
10°
-5°
-10°
-15°
-20°
-25°
-30°
-35°
33> m/s
29 m/s
25 m/s
21 m/s
17 m/s
14 m/s
11 m/s
8 m/s
5 m/s
3 m/s
0 m/s
2600 J/kg
2400 J/kg
2200 J/kg
2000 J/kg
1800 J/kg
1600 J/kg
1400 J/kg
1200 J/kg
1000 J/kg
800 J/kg
600 J/kg
400 J/kg
200 J/kg
70 dBZ
65 dBZ
60 dBZ
55 dBZ
50 dBZ
45 dBZ
40 dBZ
35 dBZ
30 dBZ
25 dBZ
20 dBZ
15 dBZ
10 dBZ
5 dBZ
-1 K
-2 K
-3 K
-4 K
-5 K
-6 K
-7 K
-8 K
-9 K
950 m²/s²
900 m²/s²
850 m²/s²
800 m²/s²
750 m²/s²
700 m²/s²
650 m²/s²
600 m²/s²
550 m²/s²
500 m²/s²
450 m²/s²
400 m²/s²
350 m²/s²
300 m²/s²
250 m²/s²
200 m²/s²
150 m²/s²
100 m²/s²
46 m/s
44 m/s